Location: �bnet
(46.9957°N, 8.4908°E)
Time: 08:40:16
(UTC+00:00)

Landsat 7 - Pass Details

Date: 11 May 2021
Orbit: 701 x 703 km, 98.0° (Epoch: 13 June)

Event Time Altitude Azimuth Distance (km) Brightness Sun altitude
Exits shadow 20:22:52 12° 176° (S) 2,033 5.8 -13.4°
Maximum altitude 20:27:15 66° 259° (WSW) 770 4.1 -13.9°
Drops below altitude 10° 20:32:01 10° 341° (NNW) 2,182 7.5 -14.5°
Sets 20:34:18 0° 345° (NNW) 3,104 8.4 -14.7°
